TimeCEST,TemperatureF,Dew PointF,Humidity,Sea Level PressureIn,VisibilityMPH,Wind Direction,Wind SpeedMPH,Gust SpeedMPH,PrecipitationIn,Events,Conditions,WindDirDegrees,DateUTC
12:00 AM,42.8,37.4,81,29.98,-9999.0,Variable,1.2,-,N/A,,Clear,0,2012-10-10 22:00:00
12:30 AM,41.0,37.4,87,29.98,-9999.0,Calm,Calm,-,N/A,,Clear,0,2012-10-10 22:30:00
1:00 AM,39.2,35.6,87,29.98,-9999.0,ENE,1.2,-,N/A,,Clear,70,2012-10-10 23:00:00
1:30 AM,39.2,35.6,87,29.98,-9999.0,WSW,2.3,-,N/A,,Clear,240,2012-10-10 23:30:00
2:00 AM,39.2,35.6,87,29.98,-9999.0,Variable,2.3,-,N/A,,Clear,0,2012-10-11 00:00:00
2:30 AM,39.2,35.6,87,29.98,-9999.0,NNW,2.3,-,N/A,,Clear,340,2012-10-11 00:30:00
3:00 AM,37.4,33.8,87,29.98,-9999.0,Variable,2.3,-,N/A,,Clear,0,2012-10-11 01:00:00
3:30 AM,37.4,33.8,87,29.98,-9999.0,Calm,Calm,-,N/A,,Clear,0,2012-10-11 01:30:00
4:00 AM,37.4,33.8,87,29.98,-9999.0,WSW,1.2,-,N/A,,Clear,250,2012-10-11 02:00:00
4:30 AM,37.4,33.8,87,29.98,-9999.0,Variable,2.3,-,N/A,,Clear,0,2012-10-11 02:30:00
5:00 AM,37.4,33.8,87,29.98,-9999.0,Variable,1.2,-,N/A,,Clear,0,2012-10-11 03:00:00
5:30 AM,33.8,30.2,87,29.98,-9999.0,Variable,1.2,-,N/A,,Clear,0,2012-10-11 03:30:00
6:00 AM,35.6,32.0,87,29.98,-9999.0,North,2.3,-,N/A,,Clear,350,2012-10-11 04:00:00
6:30 AM,35.6,32.0,87,29.98,-9999.0,ENE,2.3,-,N/A,,Clear,70,2012-10-11 04:30:00
7:00 AM,33.8,30.2,87,29.98,-9999.0,Variable,1.2,-,N/A,,Clear,0,2012-10-11 05:00:00
7:30 AM,33.8,32.0,93,30.01,6.2,West,2.3,-,N/A,Fog,Shallow Fog,270,2012-10-11 05:30:00
8:00 AM,35,32,84,30.06,7,WNW,4.5,,,,Scattered Clouds,300,2012-10-11 06:00:00
8:00 AM,35.6,32.0,87,30.01,-9999.0,WNW,4.6,-,N/A,,Clear,290,2012-10-11 06:00:00
8:30 AM,37.4,33.8,87,30.01,-9999.0,WNW,4.6,-,N/A,,Clear,290,2012-10-11 06:30:00
9:00 AM,39.2,35.6,87,30.01,-9999.0,WNW,3.5,-,N/A,,Clear,290,2012-10-11 07:00:00
9:30 AM,41.0,35.6,81,30.01,-9999.0,WNW,4.6,-,N/A,,Clear,290,2012-10-11 07:30:00
10:00 AM,44.6,35.6,71,30.01,-9999.0,West,4.6,-,N/A,,Clear,270,2012-10-11 08:00:00
10:30 AM,44.6,35.6,71,30.01,-9999.0,West,3.5,-,N/A,,Clear,270,2012-10-11 08:30:00
11:00 AM,46.4,37.4,71,30.01,6.2,WSW,3.5,-,N/A,,Partly Cloudy,250,2012-10-11 09:00:00
11:30 AM,50.0,37.4,62,30.01,6.2,SW,3.5,-,N/A,,Partly Cloudy,230,2012-10-11 09:30:00
12:00 PM,50.0,37.4,62,30.01,6.2,SW,3.5,-,N/A,,Partly Cloudy,230,2012-10-11 10:00:00
12:30 PM,51.8,37.4,58,30.01,6.2,West,4.6,-,N/A,,Partly Cloudy,280,2012-10-11 10:30:00
1:00 PM,51.8,35.6,54,29.98,6.2,WNW,5.8,-,N/A,,Partly Cloudy,300,2012-10-11 11:00:00
1:30 PM,55.4,35.6,47,29.98,6.2,SSW,5.8,-,N/A,,Mostly Cloudy,210,2012-10-11 11:30:00
2:00 PM,54,36,40,29.99,19,SSW,4.5,,,,Mostly Cloudy,210,2012-10-11 12:00:00
2:00 PM,53.6,35.6,51,29.98,6.2,West,3.5,-,N/A,,Mostly Cloudy,260,2012-10-11 12:00:00
2:30 PM,53.6,35.6,51,29.95,6.2,South,6.9,-,N/A,,Mostly Cloudy,170,2012-10-11 12:30:00
3:00 PM,55.4,37.4,51,29.95,6.2,Variable,3.5,-,N/A,,Mostly Cloudy,0,2012-10-11 13:00:00
3:30 PM,55.4,35.6,47,29.95,6.2,WSW,4.6,-,N/A,,Scattered Clouds,250,2012-10-11 13:30:00
4:00 PM,55.4,35.6,47,29.95,6.2,South,4.6,-,N/A,,Partly Cloudy,190,2012-10-11 14:00:00
4:30 PM,53.6,33.8,47,29.95,6.2,Variable,1.2,-,N/A,,Scattered Clouds,0,2012-10-11 14:30:00
5:00 PM,55.4,35.6,47,29.95,-9999.0,Variable,2.3,-,N/A,,Clear,0,2012-10-11 15:00:00
5:30 PM,53.6,35.6,51,29.95,-9999.0,East,6.9,-,N/A,,Clear,90,2012-10-11 15:30:00
6:00 PM,50.0,37.4,62,29.95,-9999.0,ESE,5.8,-,N/A,,Clear,110,2012-10-11 16:00:00
6:30 PM,50.0,37.4,62,29.95,-9999.0,ENE,5.8,-,N/A,,Clear,70,2012-10-11 16:30:00
7:00 PM,46.4,37.4,71,29.95,-9999.0,ENE,6.9,-,N/A,,Clear,70,2012-10-11 17:00:00
7:30 PM,46.4,37.4,71,29.95,-9999.0,ENE,8.1,-,N/A,,Clear,60,2012-10-11 17:30:00
8:00 PM,46,37,62,29.97,19,ENE,8.9,,,,Clear,60,2012-10-11 18:00:00
8:00 PM,46.4,37.4,71,29.95,-9999.0,NE,8.1,-,N/A,,Clear,50,2012-10-11 18:00:00
8:30 PM,44.6,37.4,76,29.95,-9999.0,ENE,5.8,-,N/A,,Clear,60,2012-10-11 18:30:00
9:00 PM,44.6,37.4,76,29.95,-9999.0,NE,8.1,-,N/A,,Clear,50,2012-10-11 19:00:00
9:30 PM,44.6,37.4,76,29.95,-9999.0,NE,6.9,-,N/A,,Clear,50,2012-10-11 19:30:00
10:00 PM,44.6,37.4,76,29.95,-9999.0,NE,8.1,-,N/A,,Clear,50,2012-10-11 20:00:00
10:30 PM,44.6,35.6,71,29.95,-9999.0,NE,6.9,-,N/A,,Clear,40,2012-10-11 20:30:00
11:00 PM,42.8,35.6,76,29.95,-9999.0,ENE,4.6,-,N/A,,Clear,60,2012-10-11 21:00:00
11:30 PM,41.0,35.6,81,29.95,-9999.0,NE,4.6,-,N/A,,Clear,50,2012-10-11 21:30:00